Погода в Северном

Россия / Новосибирская область     56°21′03″N   78°22′09″E
темп.,
°C
ветер,
м/с
пор.,
м/с
влажн.,
%
обл.,
%
осадки,
мм/ч
давл.,
гПа
погр.,
м
12 апреля, пн
пн1201:000зюз4995100 0.0 1037284
04:00−1зюз5109575 0.0 1036303
07:00−2юз51194100 0.0 1034226
10:000юз61291100 0.0 1032301
13:00+2зюз61399100 0.0 1031377
16:00+4зюз61191100 0.0 1029418
19:00+2зюз5998100 0.7 1029283
22:00+2зсз4999100 0.5 1030257
13 апреля, вт
вт1301:00+2сз3896100 0.5 1030178
04:00+1сз489617 0.0 1031164
07:000сз48941 0.0 1033163
10:00+3сз47814 0.0 1034333
13:00+5зсз685731 0.0 10341037
16:00+7зсз796479 0.0 10331641
19:00+6зсз6107282 0.1 1033671
22:00+3з498727 0.0 1034171
14 апреля, ср
ср1401:00+2з4109193 0.0 1034191
04:00+2з41189100 0.0 1033232
07:00+2зюз51186100 0.0 1032231
10:00+5зюз71576100 0.0 1030481
13:00+8зюз81569100 0.0 1027785
16:00+10зюз81469100 0.0 1025894
19:00+10з71376100 0.1 1024772
22:00+8з51187100 0.0 1024316
15 апреля, чт
чт1501:00+7сз3695100 0.1 1024159
04:00+6ссз2394100 0.0 102447
07:00+5зсз229439 0.0 102413
10:00+8зюз248455 0.0 1023307
13:00+9юз4688100 0.0 1021288
16:00+15зюз695545 0.1 10181721
19:00+14зюз611649 0.4 1016639
22:00+10зюз410795 0.1 1015180
16 апреля, пт
пт1601:00+8зюз410855 0.1 1014164
04:00+7зюз410875 0.0 1013166
07:00+6зюз4108714 0.0 1013146
10:00+10зсз357418 0.0 1014317
13:00+12с346839 0.0 1014854
16:00+9ссв557788 0.0 1015484
19:00+7св677797 0.0 1016530
22:00+5всв61083100 0.0 1015462